This demonstration page uses our WeatherBlox Daily Observations layout. Learn more.

Left ArrowRight Arrow

Hourly Observations for July 27, 2018

Temp ( °F °C ) Dew Point ( °F °C ) Humidity (%) Winds ( mph kmh ) Pressure ( in mb ) Visibility ( mi km ) Precip ( " mm )
12:15 am 00:15 Clear 61 15.9 59 15.2 96 96 N N/A 30.12 1020 7 11 N/A
12:35 am 00:35 Clear with Mist and Fog 61 16.3 60 15.6 96 96 N N/A 30.15 1021 5 8 N/A
12:55 am 00:55 Clear with Mist and Fog 61 16.2 60 15.5 96 96 N N/A 30.15 1021 5 8 N/A
1:15 am 01:15 Clear 61 16 60 15.3 96 96 NNE 3 6 30.15 1021 7 11 N/A
1:35 am 01:35 Clear with Mist and Fog 60 15.8 59 15.1 96 96 NNE 3 6 30.15 1021 5 8 N/A
1:55 am 01:55 Clear with Mist and Fog 60 15.3 58 14.6 96 96 N N/A 30.15 1021 5 8 N/A
2:15 am 02:15 Clear with Mist and Fog 59 15.2 58 14.5 96 96 NNW 3 6 30.15 1021 4 6 N/A
2:35 am 02:35 Clear 59 14.8 57 14.1 96 96 WNW 3 6 30.12 1020 7 11 N/A
2:55 am 02:55 Clear with Mist and Fog 58 14.6 57 14 96 96 NNW 3 6 30.15 1021 5 8 N/A
3:15 am 03:15 Clear with Mist and Fog 59 14.8 57 14.1 96 96 N N/A 30.12 1020 5 8 N/A
3:35 am 03:35 Clear with Mist and Fog 58 14.7 57 14 96 96 N N/A 30.12 1020 3 5 N/A
3:55 am 03:55 Clear with Mist and Fog 58 14.6 57 13.9 96 96 NNE 3 6 30.18 1022 3 5 N/A
4:15 am 04:15 Clear with Mist and Fog 58 14.5 57 13.8 96 96 N 3 6 30.18 1022 5 8 N/A
4:35 am 04:35 Clear 58 14.4 57 13.7 96 96 N N/A 30.18 1022 7 11 N/A
4:55 am 04:55 Clear 58 14.2 56 13.5 96 96 N N/A 30.18 1022 7 11 N/A
5:15 am 05:15 Clear with Mist and Fog 58 14.5 57 13.7 95 95 N N/A 30.18 1022 5 8 N/A
5:35 am 05:35 Clear with Mist and Fog 58 14.6 57 14 96 96 N N/A 30.18 1022 5 8 N/A
5:55 am 05:55 Clear with Mist and Fog 58 14.5 57 13.8 96 96 N N/A 30.15 1021 5 8 N/A
6:15 am 06:15 Mostly Cloudy with Mist and Fog 58 14.5 57 13.8 96 96 N N/A 30.15 1021 1 2 N/A
6:35 am 06:35 Sunny with Mist and Fog 58 14.5 57 13.7 95 95 N N/A 30.15 1021 5 8 N/A
6:55 am 06:55 Mostly Cloudy with Mist and Fog 57 14 56 13.2 95 95 N N/A 30.15 1021 1 2 N/A
7:15 am 07:15 Sunny with Mist and Fog 58 14.5 57 13.9 96 96 N 3 6 30.18 1022 3 4 N/A
7:35 am 07:35 Sunny with Mist and Fog 59 15 58 14.4 96 96 NNE 5 7 30.15 1021 3 4 N/A
7:55 am 07:55 Sunny with Mist and Fog 60 15.8 59 15.2 96 96 E 6 9 30.15 1021 4 6 N/A
8:15 am 08:15 Sunny 62 16.6 61 16 96 96 E 5 7 30.15 1021 7 11 N/A
8:35 am 08:35 Sunny 64 17.6 61 16.2 92 92 ESE 8 13 30.15 1021 10 16 N/A
8:55 am 08:55 Sunny 65 18.5 61 16.1 86 86 SE 7 11 30.12 1020 10 16 N/A
9:15 am 09:15 Sunny 66 19 61 16 83 83 SE 9 15 30.12 1020 10 16 N/A
9:35 am 09:35 Sunny 67 19.7 62 16.4 81 81 SE 7 11 30.12 1020 10 16 N/A
9:55 am 09:55 Sunny 69 20.6 61 16.3 76 76 SE 7 11 30.12 1020 10 16 N/A
10:15 am 10:15 Sunny 71 21.5 62 16.5 73 73 ESE 8 13 30.12 1020 10 16 N/A
10:35 am 10:35 Sunny 72 22.1 62 16.4 70 70 ESE 7 11 30.09 1019 10 16 N/A
10:55 am 10:55 Mostly Cloudy 74 23.1 62 16.6 67 67 SSE 5 7 30.09 1019 10 16 N/A
11:15 am 11:15 Cloudy 74 23.1 62 16.4 66 66 SSE 8 13 30.09 1019 10 16 N/A
11:35 am 11:35 Partly Cloudy 75 24 62 16.7 64 64 S 8 13 30.09 1019 10 16 N/A
11:55 am 11:55 Partly Cloudy 76 24.6 62 16.7 62 62 S 7 11 30.09 1019 10 16 N/A
12:15 pm 12:15 Mostly Cloudy 77 25.2 62 16.6 59 59 ESE 7 11 30.06 1018 10 16 N/A
12:35 pm 12:35 Cloudy 78 25.5 62 16.9 59 59 S 5 7 30.06 1018 10 16 N/A
12:55 pm 12:55 Mostly Cloudy 79 25.9 62 16.7 57 57 SSE 5 7 30.06 1018 10 16 N/A
1:15 pm 13:15 Partly Cloudy 79 26 62 16.6 56 56 SSE 7 11 30.03 1017 10 16 N/A
1:35 pm 13:35 Partly Cloudy 79 26.3 63 17 57 57 S 6 9 30.03 1017 10 16 N/A
1:55 pm 13:55 Mostly Cloudy 79 26 62 16.8 57 57 SE 5 7 30.03 1017 10 16 N/A
2:15 pm 14:15 Partly Cloudy 80 26.5 63 17.3 57 57 SSE 7 11 30.03 1017 10 16 N/A
2:35 pm 14:35 Mostly Cloudy 79 25.9 63 17.3 59 59 S 7 11 30.03 1017 10 16 N/A
2:55 pm 14:55 Partly Cloudy 79 26 63 17.2 58 58 SSE 10 17 30.03 1017 10 16 N/A
3:15 pm 15:15 Partly Cloudy 79 26 63 17.2 58 58 S 7 11 30.03 1017 10 16 N/A
3:35 pm 15:35 Partly Cloudy 79 26 64 17.5 60 60 S 8 13 30.03 1017 10 16 N/A
3:55 pm 15:55 Sunny 78 25.7 64 17.7 61 61 S 6 9 30.03 1017 10 16 N/A
4:15 pm 16:15 Partly Cloudy 78 25.3 64 17.6 62 62 S 6 9 30.03 1017 10 16 N/A
4:35 pm 16:35 Mostly Cloudy 77 25 65 18.4 67 67 S 3 6 30.00 1016 10 16 N/A
4:55 pm 16:55 Partly Cloudy with Light Rain 77 24.8 66 18.8 69 69 SSW 7 11 30.00 1016 10 16 N/A
5:15 pm 17:15 Partly Cloudy 77 24.8 66 18.9 70 70 SE 5 7 29.97 1015 10 16 N/A
5:35 pm 17:35 Sunny 79 25.9 64 17.7 61 61 SSE 7 11 29.97 1015 10 16 N/A
5:55 pm 17:55 Sunny 81 27 64 17.8 57 57 ESE 8 13 29.97 1015 10 16 N/A
6:15 pm 18:15 Sunny 80 26.5 64 17.7 59 59 SSE 3 6 29.97 1015 10 16 N/A
6:35 pm 18:35 Partly Cloudy 80 26.5 63 17.2 57 57 S 6 9 29.97 1015 10 16 N/A
6:55 pm 18:55 Partly Cloudy 80 26.5 61 16.2 53 53 SE 3 6 29.97 1015 10 16 N/A
7:15 pm 19:15 Partly Cloudy 79 26 63 17.4 59 59 SE 8 13 29.97 1015 10 16 N/A
7:35 pm 19:35 Mostly Cloudy 78 25.5 64 17.6 62 62 SE 7 11 29.97 1015 10 16 N/A
7:55 pm 19:55 Mostly Cloudy 77 24.9 64 18 66 66 SSE 5 7 29.97 1015 10 16 N/A
8:15 pm 20:15 Cloudy 76 24.6 64 17.6 65 65 E 12 19 29.97 1015 10 16 N/A
8:35 pm 20:35 Cloudy 73 22.6 61 16.3 68 68 NNE 18 30 30.03 1017 10 16 N/A
8:55 pm 20:55 Mostly Cloudy 69 20.3 57 14 67 67 E 13 20 30.06 1018 10 16 N/A
9:15 pm 21:15 Mostly Cloudy 67 19.7 60 15.5 77 77 E 9 15 30.03 1017 10 16 N/A
9:35 pm 21:35 Partly Cloudy 70 21.2 59 15 68 68 SE 9 15 30.00 1016 10 16 N/A
9:55 pm 21:55 Clear 69 20.5 59 15.2 72 72 ESE 8 13 30.03 1017 10 16 N/A
10:15 pm 22:15 Clear 67 19.4 61 16 81 81 E 7 11 30.03 1017 10 16 N/A
10:35 pm 22:35 Clear 66 18.9 62 16.4 86 86 E 6 9 30.06 1018 10 16 N/A
10:55 pm 22:55 Clear 66 19 62 16.5 86 86 ENE 5 7 30.06 1018 10 16 N/A
11:15 pm 23:15 Clear 65 18.1 62 16.5 90 90 NE 6 9 30.06 1018 10 16 N/A
11:35 pm 23:35 Clear 64 17.6 61 16 90 90 N N/A 30.09 1019 10 16 N/A
11:55 pm 23:55 Clear 63 17.4 60 15.7 90 90 N N/A 30.09 1019 10 16 N/A

Powered by AerisWeather